Location: Berlise
(49.6641°N, 4.1077°E)
Time: 02:16:31
(UTC+00:00)

NOSS 3-2 (A) - Pass Details

Date: 27 January 2021
Orbit: 783 x 1425 km, 63.4° (Epoch: 24 February)

Event Time Altitude Azimuth Distance (km) Brightness Sun altitude
Exits shadow 05:00:35 14° 203° (SSW) 2,166 5.1 -22.9°
Maximum altitude 05:05:22 63° 125° (SE) 1,013 3.7 -22.1°
Drops below altitude 10° 05:11:48 10° 46° (NE) 2,826 6.5 -21.0°
Sets 05:14:39 0° 44° (NE) 3,884 7.2 -20.6°
